[[{"header":{"parameterUnit":"m.s-1","parameterCategory":1,"la1":30.2991,"la2":30.254,"lo1":-89.0895,"lo2":-89.0444,"dy":0.0017,"dx":0.0017,"nx":28,"ny":28,"refTime":"2025-05-28T21:00:00:Z","depth":0,"parameterNumber":2,"parameterNumberName":"U-component_of_WINDS"},"data":[0,0,0,0,0,0,0,0,0,0,0,0,0,0,0,0,0,0,0,0,0,0,0,0,0,0,0,0,0,0,0,0,0,0,0,0,0,0,0,0,0,0,0,0,0,0,0,0,0,0,0,0,0,0,0,0,0,0,5.4781,5.4783,0,5.4944,5.4945,5.4947,5.4933,5.4931,5.4928,5.4926,5.5096,5.5102,5.5109,0,0,0,0,0,0,0,0,0,0,0,0,0,5.4462,5.4468,5.4781,5.4783,5.4785,5.4943,5.4946,5.4948,5.4934,5.4931,5.4928,5.4925,5.5093,5.5101,5.511,0,0,0,0,0,0,0,0,0,0,0,0,0,5.461,5.447,5.4781,5.4797,5.48,5.4943,5.4946,5.4948,5.4935,5.4931,5.4927,5.4924,5.5091,5.5101,5.5111,5.5249,0,0,5.5142,5.5147,0,0,0,0,0,0,0,0,5.4602,5.4622,5.4793,5.4796,5.48,5.4914,5.4895,5.5049,5.4935,5.4884,5.4926,5.4922,5.5039,5.5053,5.5092,5.5256,5.5264,5.5143,5.5149,5.5154,5.5156,0,0,0,0,0,0,0,5.4592,5.4615,5.4845,5.4795,5.48,5.4798,5.4815,5.4924,5.498,5.4888,5.4887,5.4907,5.504,5.5082,5.5095,5.5266,5.5143,5.5152,5.5158,5.5162,5.5554,5.5559,0,0,0,0,0,0,5.4577,5.4607,5.484,5.485,5.469,5.4806,5.4825,5.4881,5.4979,5.499,5.491,5.4905,5.5066,5.5084,5.5101,5.527,5.5154,5.5163,5.5169,5.555,5.5555,5.556,0,0,0,0,0,0,5.457,5.4598,5.4834,5.4728,5.4758,5.4816,5.4879,5.4887,5.4928,5.4995,5.5005,5.4942,5.5064,5.5087,5.5212,5.5276,5.5168,5.5177,5.5545,5.5552,5.5558,5.5609,0,0,0,0,0,0,5.4561,5.4596,5.4648,5.473,5.4764,5.4941,5.4883,5.4893,5.4946,5.4942,5.5028,5.5039,5.5063,5.5197,5.5222,5.5288,5.5185,5.554,5.5548,5.5556,5.5602,5.5616,5.5628,0,0,0,0,0,5.455,5.4656,5.465,5.4679,5.483,5.4944,5.4964,5.4988,5.4951,5.5004,5.5048,5.5036,5.5265,5.521,5.5239,5.5308,5.5536,5.5546,5.5555,5.5595,5.5613,5.5628,0,0,0,0,0,0,5.458,5.4667,5.4662,5.4797,5.4863,5.4942,5.501,5.5006,5.5085,5.5078,5.5106,5.5126,5.5252,5.5293,5.523,5.5448,5.5396,5.5411,5.5417,5.5434,5.5447,5.5435,5.5194,0,0,0,0,0,5.4603,5.4688,5.4759,5.4871,5.4905,5.4952,5.5003,5.5016,5.5086,5.5114,5.5166,5.5236,5.5324,5.5381,5.5465,5.5607,5.5627,5.5669,5.5683,5.5693,5.5707,5.5787,5.5807,5.5592,5.5592,5.5591,0,0,5.465,5.4708,5.476,5.4879,5.4932,5.5021,5.4975,5.5071,5.5137,5.5129,5.5251,5.5292,5.5371,5.5506,5.5568,5.5544,5.5771,5.5706,5.5714,5.5722,5.5799,5.5819,5.5837,5.5598,5.5597,5.5596,0,0,5.4782,5.4833,5.4933,5.4987,5.5068,5.5099,5.5123,5.5203,5.5229,5.5351,5.5348,5.5428,5.5578,5.5635,5.5684,5.5839,5.5832,5.5866,5.5936,5.6014,5.6031,5.6046,5.6103,5.6123,5.5879,5.5879,5.5879,0,5.483,5.4963,5.4985,5.5082,5.5135,5.5131,5.5234,5.5286,5.539,5.5428,5.5399,5.5588,5.5642,5.579,5.5828,5.5868,5.5897,5.5856,5.6026,5.6042,5.6056,5.6111,5.6132,5.5883,5.5882,5.5882,5.5882,0,5.502,5.5112,5.5183,5.5284,5.5345,5.5444,5.5483,5.5543,5.5551,5.5585,5.5711,5.5775,5.5873,5.5909,5.5918,5.606,5.6043,5.602,5.5968,5.608,5.6132,5.6153,5.5888,5.5887,5.5886,5.5885,0,0,5.5175,5.5287,5.5313,5.5359,5.5449,5.5521,5.5621,5.5716,5.5767,5.584,5.5925,5.6053,5.6033,5.6088,5.6104,5.6172,5.6292,5.6141,5.6143,5.6168,5.6455,5.6472,5.6496,5.6288,5.6292,5.6295,5.6449,0,5.5316,5.5492,5.5516,5.5672,5.5758,5.5756,5.5843,5.5909,5.5943,5.6023,5.6062,5.6152,5.6118,5.6152,5.6219,5.6263,5.6351,5.6253,5.637,5.6373,5.635,5.6523,5.6541,5.6682,5.6469,5.6472,5.6475,0,5.5505,5.5582,5.5747,5.5825,5.5863,5.594,5.603,5.6106,5.618,5.6201,5.6263,5.6271,5.6376,5.6319,5.6465,5.6398,5.6448,5.6477,5.6483,5.6496,5.6431,5.6541,5.6728,5.6749,5.6506,5.6504,5.6502,0,5.5603,5.5748,5.5866,5.5906,5.6,5.6055,5.6097,5.6168,5.6224,5.6303,5.634,5.6431,5.648,5.6551,5.6583,5.6539,5.6728,5.6674,5.675,5.6749,5.679,5.6787,5.6989,5.682,5.682,5.682,5.6819,0,5.5759,5.586,5.5912,5.5984,5.6098,5.6125,5.6238,5.6278,5.6341,5.6423,5.6427,5.6503,5.6541,5.6624,5.665,5.6768,5.679,5.6811,5.6817,5.6811,5.6809,5.6844,5.6836,5.6825,5.6824,5.6823,5.6822,0,5.5889,5.5927,5.6055,5.6134,5.6157,5.6237,5.6306,5.6377,5.6411,5.6514,5.654,5.6595,5.6693,5.6732,5.6851,5.6869,5.7005,5.7003,5.698,5.6982,5.7056,5.7049,5.7288,5.7322,5.713,5.7132,5.7134,0,5.5986,5.6064,5.6151,5.6206,5.625,5.6337,5.6395,5.6425,5.6485,5.6576,5.6637,5.6734,5.6814,5.6971,5.7022,5.7114,5.7115,5.7192,5.7129,5.7121,5.7118,5.7113,5.7122,5.7204,5.7206,5.7208,5.7209,0,5.6156,5.6171,5.6253,5.6343,5.6411,5.6482,5.6553,5.6597,5.6639,5.6706,5.6805,5.6867,5.699,5.7087,5.7182,5.7227,5.7226,5.7228,5.7251,5.7247,5.7231,5.7242,5.7013,5.7223,5.7222,5.7221,5.722,5.7219,5.6274,5.6343,5.6416,5.6508,5.6563,5.6629,5.67,5.6743,5.6827,5.6928,5.6941,5.7049,5.7123,5.725,5.7299,5.7385,5.7365,5.7397,5.7406,5.7414,5.7419,5.7216,5.7402,5.7402,5.7401,5.7401,5.7401,0,5.6445,5.6492,5.6575,5.6673,5.6746,5.6737,5.6815,5.6876,5.697,5.7039,5.7117,5.7233,5.7328,5.7386,5.7482,5.7539,5.7541,5.7564,5.756,5.7571,5.7431,5.7402,5.756,5.756,5.756,5.756,5.756,5.756,5.6542,5.666,5.6684,5.683,5.6877,5.6981,5.7026,5.7088,5.7143,5.7271,5.735,5.7387,5.7453,5.7553,5.764,5.7655,5.7691,5.7715,5.7729,5.7597,5.7581,5.7565,5.7538,5.7722,5.7722,5.7862,5.7863,5.7864]},{"header":{"parameterUnit":"m.s-1","parameterCategory":1,"la1":30.2991,"la2":30.254,"lo1":-89.0895,"lo2":-89.0444,"dy":0.0017,"dx":0.0017,"nx":28,"ny":28,"refTime":"2025-05-28T21:00:00:Z","depth":0,"parameterNumber":3,"parameterNumberName":"V-component_of_WINDS"},"data":[0,0,0,0,0,0,0,0,0,0,0,0,0,0,0,0,0,0,0,0,0,0,0,0,0,0,0,0,0,0,0,0,0,0,0,0,0,0,0,0,0,0,0,0,0,0,0,0,0,0,0,0,0,0,0,0,0,0,-0.1427,-0.1427,0,-0.1412,-0.1412,-0.1412,-0.1437,-0.1437,-0.1438,-0.1439,-0.1422,-0.1421,-0.142,0,0,0,0,0,0,0,0,0,0,0,0,0,-0.1477,-0.1476,-0.1427,-0.1427,-0.1427,-0.1412,-0.1412,-0.1412,-0.1436,-0.1437,-0.1438,-0.1439,-0.1422,-0.1421,-0.1419,0,0,0,0,0,0,0,0,0,0,0,0,0,-0.1458,-0.1475,-0.1427,-0.1437,-0.1438,-0.1412,-0.1412,-0.1412,-0.1436,-0.1437,-0.1439,-0.144,-0.1423,-0.1421,-0.1419,-0.1382,0,0,-0.1414,-0.1413,0,0,0,0,0,0,0,0,-0.1459,-0.1456,-0.1436,-0.1437,-0.1438,-0.1428,-0.1423,-0.1402,-0.1436,-0.1437,-0.1439,-0.1441,-0.1423,-0.1421,-0.1415,-0.1381,-0.1381,-0.1413,-0.1412,-0.1411,-0.1411,0,0,0,0,0,0,0,-0.146,-0.1457,-0.1421,-0.1436,-0.1437,-0.1443,-0.1441,-0.1419,-0.1423,-0.1437,-0.1439,-0.1437,-0.1423,-0.1417,-0.1415,-0.138,-0.1413,-0.1412,-0.1411,-0.141,-0.1316,-0.1315,0,0,0,0,0,0,-0.146,-0.1458,-0.1422,-0.1421,-0.1452,-0.1441,-0.1439,-0.1429,-0.1423,-0.1423,-0.1436,-0.1438,-0.142,-0.1417,-0.1415,-0.1371,-0.1411,-0.141,-0.1409,-0.1318,-0.1316,-0.1315,0,0,0,0,0,0,-0.1461,-0.1457,-0.1422,-0.144,-0.1436,-0.1438,-0.1427,-0.1429,-0.1422,-0.1422,-0.1423,-0.1429,-0.142,-0.1417,-0.139,-0.1371,-0.1409,-0.1407,-0.1319,-0.1317,-0.1315,-0.1284,0,0,0,0,0,0,-0.1463,-0.1457,-0.1443,-0.1439,-0.1435,-0.1399,-0.1426,-0.1427,-0.1419,-0.1422,-0.1416,-0.1416,-0.1421,-0.1393,-0.1389,-0.1369,-0.1406,-0.1321,-0.1318,-0.1316,-0.1287,-0.1282,-0.1277,0,0,0,0,0,-0.1464,-0.1435,-0.1442,-0.1438,-0.1418,-0.1397,-0.1395,-0.1402,-0.1417,-0.1404,-0.1404,-0.1416,-0.1374,-0.139,-0.1385,-0.1365,-0.1322,-0.1319,-0.1316,-0.129,-0.1283,-0.1277,0,0,0,0,0,0,-0.1435,-0.1434,-0.1443,-0.1411,-0.1404,-0.1402,-0.1384,-0.1395,-0.1383,-0.1386,-0.1395,-0.1393,-0.1365,-0.1362,-0.138,-0.1329,-0.1351,-0.1346,-0.1332,-0.1326,-0.1321,-0.1322,-0.1404,0,0,0,0,0,-0.1426,-0.141,-0.1409,-0.1381,-0.1378,-0.1381,-0.1373,-0.1379,-0.1372,-0.1369,-0.1368,-0.136,-0.1345,-0.1335,-0.1322,-0.1287,-0.1286,-0.1271,-0.1266,-0.1261,-0.1258,-0.124,-0.1233,-0.1304,-0.1304,-0.1305,0,0,-0.1405,-0.1402,-0.1391,-0.1376,-0.1371,-0.1354,-0.1379,-0.136,-0.1348,-0.1366,-0.1341,-0.134,-0.1332,-0.1301,-0.1288,-0.1298,-0.1238,-0.1257,-0.1254,-0.1253,-0.1236,-0.1229,-0.1223,-0.1302,-0.1303,-0.1303,0,0,-0.1358,-0.1354,-0.1331,-0.1326,-0.132,-0.1322,-0.1317,-0.1313,-0.1313,-0.1288,-0.1302,-0.1287,-0.1261,-0.1255,-0.1249,-0.1201,-0.1212,-0.1196,-0.1169,-0.1152,-0.1146,-0.1141,-0.1125,-0.1119,-0.1193,-0.1193,-0.1192,0,-0.1333,-0.1309,-0.1318,-0.1298,-0.1291,-0.1308,-0.1284,-0.1279,-0.1268,-0.1262,-0.1275,-0.1243,-0.1239,-0.1208,-0.1196,-0.119,-0.1184,-0.1197,-0.1146,-0.1142,-0.1137,-0.1121,-0.1115,-0.1191,-0.1191,-0.1191,-0.1191,0,-0.1279,-0.1262,-0.1243,-0.1233,-0.1224,-0.1202,-0.1208,-0.1197,-0.1204,-0.1206,-0.1181,-0.1176,-0.1163,-0.1155,-0.1162,-0.1125,-0.1132,-0.1145,-0.1167,-0.1128,-0.1114,-0.1108,-0.1188,-0.1189,-0.1189,-0.119,0,0,-0.1214,-0.1209,-0.1202,-0.1198,-0.1192,-0.1179,-0.1158,-0.1145,-0.1136,-0.1128,-0.1111,-0.1089,-0.1101,-0.1094,-0.11,-0.1085,-0.1048,-0.11,-0.11,-0.1091,-0.1008,-0.0998,-0.0991,-0.1055,-0.1054,-0.1053,-0.1009,0,-0.1168,-0.1133,-0.1141,-0.1106,-0.1091,-0.1107,-0.1089,-0.1083,-0.1084,-0.1071,-0.1072,-0.1057,-0.1074,-0.107,-0.1055,-0.1055,-0.1031,-0.1059,-0.104,-0.1039,-0.1042,-0.0984,-0.0973,-0.0932,-0.1003,-0.1002,-0.1001,0,-0.111,-0.1101,-0.1065,-0.1062,-0.1056,-0.1039,-0.1029,-0.1016,-0.101,-0.1011,-0.1004,-0.1013,-0.0992,-0.1014,-0.0986,-0.1005,-0.0997,-0.0996,-0.0995,-0.0994,-0.1018,-0.0981,-0.0918,-0.0912,-0.0992,-0.0993,-0.0994,0,-0.1067,-0.1045,-0.1021,-0.1017,-0.1013,-0.1001,-0.0998,-0.0994,-0.0986,-0.0976,-0.0971,-0.0959,-0.0952,-0.0942,-0.0948,-0.0963,-0.0919,-0.0941,-0.0921,-0.092,-0.0911,-0.0911,-0.0846,-0.0905,-0.0905,-0.0905,-0.0905,0,-0.1016,-0.0993,-0.1002,-0.0987,-0.0962,-0.0971,-0.0947,-0.0946,-0.0942,-0.0927,-0.094,-0.0926,-0.0934,-0.092,-0.0925,-0.0901,-0.0898,-0.0899,-0.0901,-0.0898,-0.0898,-0.0894,-0.0897,-0.0904,-0.0904,-0.0904,-0.0905,0,-0.0964,-0.0968,-0.0943,-0.0942,-0.0941,-0.0923,-0.0921,-0.0907,-0.091,-0.0891,-0.0887,-0.089,-0.0875,-0.088,-0.0863,-0.0866,-0.0837,-0.0842,-0.0839,-0.0841,-0.082,-0.0822,-0.075,-0.0741,-0.0805,-0.0804,-0.0804,0,-0.0931,-0.0914,-0.0911,-0.0902,-0.0899,-0.0885,-0.0877,-0.0885,-0.0876,-0.0869,-0.0856,-0.0842,-0.0831,-0.0807,-0.0807,-0.0795,-0.08,-0.0776,-0.0798,-0.0797,-0.08,-0.0802,-0.08,-0.0771,-0.077,-0.077,-0.0769,0,-0.0873,-0.0876,-0.0864,-0.0853,-0.0844,-0.0836,-0.0828,-0.0821,-0.0828,-0.0818,-0.0803,-0.0795,-0.0778,-0.0764,-0.0753,-0.0751,-0.0761,-0.0762,-0.0757,-0.0755,-0.0754,-0.0755,-0.0827,-0.0764,-0.0765,-0.0765,-0.0765,-0.0765,-0.083,-0.0816,-0.0812,-0.0798,-0.0794,-0.0787,-0.0775,-0.0775,-0.0763,-0.0751,-0.0756,-0.0739,-0.0734,-0.072,-0.0716,-0.0703,-0.0712,-0.0704,-0.0702,-0.07,-0.0698,-0.0756,-0.0701,-0.0701,-0.0701,-0.0701,-0.0701,0,-0.0773,-0.0771,-0.0759,-0.0749,-0.0738,-0.0749,-0.0742,-0.0733,-0.0718,-0.0712,-0.0702,-0.0685,-0.0672,-0.0672,-0.0659,-0.0649,-0.0653,-0.0645,-0.0647,-0.0646,-0.069,-0.0696,-0.0642,-0.0642,-0.0642,-0.0642,-0.0642,-0.0642,-0.0742,-0.072,-0.0722,-0.0698,-0.0696,-0.068,-0.0675,-0.0669,-0.0664,-0.0645,-0.0634,-0.0635,-0.0631,-0.0619,-0.0608,-0.0608,-0.0603,-0.0593,-0.0596,-0.0637,-0.0643,-0.0648,-0.0654,-0.0592,-0.0592,-0.0553,-0.0552,-0.0552]}]]